Home > Weather > Bitola > Past weeks

Flag for Macedonia, Republic of Weather for the Past 2 Weeks in Bitola, Macedonia, Republic of

Now
61 °F

Broken clouds.


Feels Like: 61 °F
Forecast: 48 / 58 °F
Wind: 6 mph from Southwest

Location: Ohrid Airport

Current Time: May 1, 2016 at 11:14:59 AM

Latest Report: May 1, 2016 at 10:30 AM


Visibility: N/A

Pressure: 30.01 "Hg (27.91 "Hg at 615m altitude)

Humidity: 59%

Dew Point: 46 °F

Location of BitolaLocation

Historic Weather in Bitola — Graph

°F

Bitola Temperature Yesterday

Maximum temperature yesterday: 66 °F (at 6:00 PM)
Minimum temperature yesterday: 54 °F (at 8:00 AM)
Average temperature yesterday: 59 °F

High & Low Weather Summary for the Past Weeks

 TemperatureHumidityPressure
High81 °F (Apr 19, 1:00 PM)94% (Apr 29, 9:00 AM)30.36 "Hg (Apr 29, 9:00 AM)
Low37 °F (Apr 26, 10:00 PM)15% (Apr 19, 1:00 PM)29.53 "Hg (Apr 25, 1:00 PM)
Average58 °F55%29.98 "Hg
* Reported Apr 16 10:00 AM — May 1 10:00 AM, Bitola, Weather by CustomWeather, © 2016

Note: Actual official high and low records may vary slightly from our data, if they occured in-between our weather recording intervals... More about our weather records

Advertising

Bitola Weather History for the Previous 24 Hours

Scroll right to see more
 ConditionsComfort  
Time TempWeatherWind HumidityBarometerVisibility
10:00 AM
Sun, May 1
61 °FBroken clouds.3 mph59%30.01 "HgN/A
9:00 AM57 °FBroken clouds.2 mph67%30.01 "HgN/A
8:30 AM55 °FBroken clouds.No wind72%30.01 "HgN/A
8:00 AM55 °FBroken clouds.No wind72%30.01 "HgN/A
7:30 AM54 °FBroken clouds.No wind77%30.01 "HgN/A
6:30 AM46 °FPassing clouds.2 mph87%30.01 "HgN/A
6:00 AM46 °FPassing clouds.No wind82%29.98 "HgN/A
5:30 AM48 °FPassing clouds.No wind76%29.98 "HgN/A
7:30 PM
Sat, Apr 30
55 °FPassing clouds.1 mph67%30.01 "HgN/A
7:00 PM59 °FPassing clouds.2 mph63%30.01 "HgN/A
6:30 PM66 °FPassing clouds.No wind40%29.98 "HgN/A
6:00 PM66 °FPassing clouds.No wind35%29.98 "HgN/A
5:30 PM63 °FPassing clouds.2 mph45%29.98 "HgN/A
5:00 PM64 °FScattered clouds.3 mph43%29.98 "HgN/A
4:30 PM64 °FScattered clouds.5 mph46%30.01 "HgN/A
4:00 PM63 °FScattered clouds.6 mph49%30.01 "HgN/A
3:00 PM63 °FScattered clouds.6 mph56%30.01 "HgN/A
2:30 PM61 °FScattered clouds.6 mph55%30.04 "HgN/A
2:00 PM59 °FPartly sunny.6 mph63%30.04 "HgN/A
1:30 PM57 °FPartly sunny.7 mph72%30.04 "HgN/A
1:00 PM57 °FPartly sunny.5 mph72%30.04 "HgN/A
12:30 PM59 °FPartly sunny.6 mph68%30.07 "HgN/A
12:00 PM57 °FPartly sunny.5 mph67%30.07 "HgN/A
11:30 AM57 °FPartly sunny.5 mph63%30.07 "HgN/A
11:00 AM57 °FPartly sunny.5 mph63%30.07 "HgN/A
Weather by CustomWeather, © 2016

See weather overviewHow to use our weather pages